Location: Raleigh
(35.7720°N, 78.6390°W)
Time: 23:08:16
(UTC-05:00)

FO-29 - Visible Passes

Search period start: 24 November 2017 00:00
Search period end: 04 December 2017 00:00
Orbit: 801 x 1321 km, 98.5° (Epoch: 24 November)

Date Brightness Start Highest point End Pass type
(mag) Time Alt. Az. Time Alt. Az. Time Alt. Az.
26 Nov 12.2 06:29:21 10° E 06:33:34 17° ENE 06:38:00 10° NNE visible
28 Nov 12.3 06:24:40 10° E 06:28:44 16° ENE 06:32:59 10° NNE visible
30 Nov 12.3 06:20:01 10° E 06:23:54 15° ENE 06:27:56 10° NNE visible
02 Dec 12.4 06:15:25 10° E 06:19:06 15° NE 06:22:52 10° NNE visible
